Location: Cudham
(51.3000°N, 0.0667°E)
Time: 23:49:00
(UTC+00:00)

MetOp-A - Pass Details

Date: 19 May 2025
Orbit: 521 x 774 km, 98.3° (Epoch: 18 June)

Event Time Altitude Azimuth Distance (km) Brightness Sun altitude
Exits shadow 22:10:44 22° 134° (SE) 1,650 5.2 -15.1°
Maximum altitude 22:13:53 51° 68° (ENE) 978 4.5 -15.3°
Drops below altitude 10° 22:18:53 10° 354° (N) 2,333 7.7 -15.6°
Sets 22:21:15 0° 349° (N) 3,254 8.9 -15.7°
